Location: LDNL
(36.4545°S, 141.6685°E)
Time: 12:15:36
(UTC+10:00)

Tiros 1 despin weight - Pass Details

Date: 14 August 2022
Orbit: 590 x 639 km, 48.2° (Epoch: 23 September)

Event Time Altitude Azimuth Distance (km) Brightness Sun altitude
Rises 03:22:52 0° 238° (WSW) 2,947 - -47.3°
Reaches altitude 10° 03:25:44 10° 221° (SW) 2,044 - -46.8°
Maximum altitude 03:29:15 20° 173° (S) 1,481 - -46.1°
Drops below altitude 10° 03:32:47 10° 124° (SE) 2,050 - -45.4°
Exits shadow 03:34:12 - 114° (ESE) 2,477 ? -45.1°
Sets 03:35:40 0° 107° (ESE) 2,959 ? -44.9°
